View this page in compact mode

Category Catalogue Title Size Date
Movie SD - Lesbian Seductions 56 XXX DVDRip x264-Pr0nStarS 1.2 GB29.09.2016
Movie SD - Party Hardcore Gone Crazy 28 XXX DVDRip x264-MOFOXXX 2.2 GB29.09.2016
Movie SD - Mommy And Me 13 XXX DVDRip x264-Pr0nStarS 1.1 GB29.09.2016
Scene HD 1080p BoobDay BoobDay 16 09 29 Claudia Bavel Interview XXX 1080p MP4-KTR 3.0 GB29.09.2016
Scene HD 1080p FemaleFakeTaxi FemaleFakeTaxi 16 09 29 Vanessa V Businessman Strikes Sexual Deal XXX 1080p MP4-KTR 1.3 GB29.09.2016
Scene HD 1080p FakeTaxi FakeTaxi 16 09 29 Victoria Summers XXX 1080p MP4-KTR 1.2 GB29.09.2016
Scene HD 1080p MassageRooms MassageRooms 16 09 29 Daphne Angel And Morgan Rodriguez Foot Fucking Orgasm For Hot Lesbian XXX 1080p MP4-KTR 1.3 GB29.09.2016
Scene HD 2160p MySistersHotFriend MySistersHotFriend 16 09 29 Avery Adair XXX 2160p MP4-KTR 4.0 GB29.09.2016
Scene HD 1080p ExxxtraSmall ExxxtraSmall 16 09 29 Alice March And Angel Smalls XXX 1080p MP4-KTR 3.1 GB29.09.2016
Scene HD 2160p DirtyWivesClub DirtyWivesClub 16 09 29 Blair Williams XXX 2160p MP4-KTR 4.7 GB29.09.2016
Scene HD 1080p FamilyStrokes FamilyStrokes 16 09 29 Tiffany Watson XXX 1080p MP4-KTR 2.0 GB29.09.2016
Scene HD 720p ExploitedCollegeGirls ExploitedCollegeGirls 16 09 29 Andria XXX 720p MP4-KTR 4.4 GB29.09.2016
Movie HD 720p - Home Made Blowjobs 5 XXX 720P WEBRIP MP4-GUSH 2.0 GB29.09.2016
Movie HD 720p - Christy XXX 720P WEBRIP MP4-GUSH 8.5 GB29.09.2016
Movie HD 720p - Miami Milfs 5 XXX 2015 HDTV 720p x264-SHDXXX 2.6 GB29.09.2016
Movie HD 1080p - Miami Milfs 5 XXX 2015 HDTV 1080p x264-SHDXXX 4.9 GB29.09.2016
Movie HD 720p - Bridesmaids XXX Porn Parody XXX 720P WEBRIP MP4-GUSH 4.0 GB29.09.2016
Movie HD 720p - Power Play 2015 XXX 720p HDTV x264-REDX 1.6 GB29.09.2016
Movie HD 1080p - Power Play 2015 XXX 1080p HDTV x264-REDX 3.1 GB29.09.2016
Movie HD 720p - I Did Your Dad 2014 XXX 720p HDTV x264-REDX 2.3 GB29.09.2016
Movie HD 1080p - I Did Your Dad 2014 XXX 1080p HDTV x264-REDX 4.2 GB29.09.2016
Movie HD 720p - Budapest Girls XXX 2012 HDTV 720p x264-SHDXXX 3.2 GB29.09.2016
Movie HD 1080p - Budapest Girls XXX 2012 HDTV 1080p x264-SHDXXX 4.9 GB29.09.2016
Movie HD 720p - Born 2B Sexy XXX 2010 HDTV 720p x264-SHDXXX 3.2 GB29.09.2016
Movie HD 1080p - Born 2B Sexy XXX 2010 HDTV 1080p x264-SHDXXX 5.6 GB29.09.2016
Movie SD - Power Play 2015 XXX HDTVRiP x264-REDX 599 MB29.09.2016
Movie SD - I Did Your Dad 2014 XXX HDTVRiP x264-REDX 804 MB29.09.2016
Scene HD 2160p WeLikeToSuck WeLikeToSuck 16 09 29 Briana Bounce XXX 2160p MP4-KTR 3.6 GB29.09.2016
Scene HD 1080p VeronicaRodriguez VeronicaRodriguez 16 09 24 Veronica Rodriguez Cum Shower XXX 1080p MP4-KTR 399 MB29.09.2016
Scene HD 1080p SpyPov SpyPov 16 09 24 Kat Dior XXX 1080p MP4-KTR 1.5 GB29.09.2016
Scene HD 1080p SellYourGF SellYourGF 16 09 23 Chanel Lux XXX 1080p MP4-KTR 1.1 GB29.09.2016
Movie HD 720p - My Schoolgirl Stepsister XXX 720p WEBRip MP4-VSEX 2.9 GB29.09.2016
Movie HD 1080p - My Schoolgirl Stepsister XXX 1080p WEBRip MP4-VSEX 7.3 GB29.09.2016
Scene HD 1080p KinkyFamily KinkyFamily 16 09 28 Tiffany Watson XXX 1080p MP4-KTR 1.9 GB29.09.2016
Scene HD 720p JoshStoneXXX JoshStoneXXX 16 09 24 Carmen Valentina XXX 720p MP4-KTR 952 MB29.09.2016
Scene HD 1080p BrickYates BrickYates 16 09 27 Dayanara XXX 1080p MP4-KTR 318 MB29.09.2016
Scene HD 1080p BrickYates BrickYates 16 09 13 Ava XXX 1080p MP4-KTR 462 MB29.09.2016
Scene HD 1080p BigTitsRoundAsses BigTitsRoundAsses 16 09 29 Maggie Green XXX 1080p MP4-KTR 3.7 GB29.09.2016
Scene HD 1080p ArabsExposed ArabsExposed 16 09 29 Apolonia XXX 1080p MP4-KTR 2.5 GB29.09.2016
Scene HD 1080p AllOver30 AllOver30 16 09 29 Tiffany And Elexis Monroe XXX 1080p WMV-YAPG 1.8 GB29.09.2016
Scene HD 1080p AllOver30 AllOver30 16 09 29 Danny Bloom XXX 1080p WMV-YAPG 748 MB29.09.2016
Scene HD 1080p TeensInTheWoods TeensInTheWoods E09 Cadence Lux XXX 1080p MP4-KTR 2.4 GB29.09.2016
Scene HD 1080p Spizoo Spizoo 16 09 29 Riley Reyes Tease You XXX 1080p MP4-KTR 616 MB29.09.2016
Scene HD 1080p Spizoo Spizoo 16 09 28 Alix Lynx And Anna Bell Peaks Handjob Virtual XXX 1080p MP4-KTR 988 MB29.09.2016
Scene HD 1080p OralOverdose OralOverdose 16 09 29 Maddy Oreilly XXX 1080p MP4-KTR 2.4 GB29.09.2016
Scene HD 1080p Nubiles Nubiles 16 09 29 Freya Von Doom Dirty Talk XXX 1080p MP4-KTR 1.3 GB29.09.2016
Scene HD 1080p MySistersHotFriend MySistersHotFriend 16 09 29 Avery Adair XXX 1080p MP4-KTR 2.4 GB29.09.2016
Scene HD 1080p LosConsoladores LosConsoladores 16 09 29 Sicilia And Nesty XXX 1080p MP4-KTR 2.9 GB29.09.2016
Scene HD 1080p JesseLoadsMonsterFacials JesseLoadsMonsterFacials 16 09 29 Bailey Brooke XXX 1080p MP4-KTR 674 MB29.09.2016
Movie HD 1080p - Interracial Schoolgirls XXX 1080P WEBRIP MP4-GUSH 5.6 GB29.09.2016
Scene HD 2160p InTheCrack InTheCrack E1206 Sapphira XXX 2160p MP4-KTR 5.1 GB29.09.2016
Scene HD 1080p InTheCrack InTheCrack E1206 Sapphira XXX 1080p MP4-KTR 1.7 GB29.09.2016
Scene HD 1080p HelplessTeens HelplessTeens E40 Dolly Leigh XXX 1080p MP4-KTR 1.3 GB29.09.2016
Scene HD 1080p HelplessTeens HelplessTeens E39 Dolly Leigh XXX 1080p MP4-KTR 1.3 GB29.09.2016
Scene HD 1080p DirtyWivesClub DirtyWivesClub 16 09 29 Blair Williams XXX 1080p MP4-KTR 2.9 GB29.09.2016
Scene HD 2160p ALSScan ALSScan 16 09 29 Naomi Woods Red Bow XXX 2160p MP4-KTR 1.5 GB29.09.2016
Scene HD 1080p ALSScan ALSScan 16 09 29 Naomi Woods Red Bow XXX 1080p MP4-KTR 771 MB29.09.2016
Scene HD 1080p WeLikeToSuck WeLikeToSuck 16 09 29 Briana Bounce XXX 1080p MP4-KTR 1.3 GB29.09.2016
Scene HD 1080p PlayboyPlus PlayboyPlus 16 09 29 Caitlin McSwain Sex Kitten XXX 1080p x264-GAGViD 324 MB29.09.2016
Scene HD 1080p PascalsSubSluts PascalsSubSluts 16 09 29 Jess Scotland XXX 1080p MP4-KTR 1.3 GB29.09.2016
Scene HD 1080p OnlyTeenBlowJobs OnlyTeenBlowJobs 16 09 29 Kimber Woods XXX 1080p MP4-KTR 709 MB29.09.2016
Scene HD 1080p ImmoralLive ImmoralLive 16 09 29 Aisha Angel XXX 1080p MP4-KTR 1.5 GB29.09.2016
Scene HD 2160p IAmEighteen IAmEighteen 16 09 28 Emma Hix XXX 2160p MP4-KTR 4.3 GB29.09.2016
Scene HD 1080p HouseOfTaboo HouseOfTaboo 16 09 29 Jasmine Jae XXX 1080p MP4-KTR 1.6 GB29.09.2016
Scene HD 1080p HotAndMean HotAndMean 16 09 29 Jelena Jensen And Kenzie Taylor Personal Trainers XXX 1080p MP4-KTR 3.2 GB29.09.2016
Scene HD 1080p GirlsWay GirlsWay 16 09 29 Abigail Mac And Kendra Lust Little Red A Lesbian Fairy Tale Part Three XXX 1080p MP4-KTR 1.6 GB29.09.2016
Scene HD 1080p FantasyMassage FantasyMassage 16 09 29 Kimber Woods The Teachers Assistant XXX 1080p MP4-KTR 1.5 GB29.09.2016
Scene HD 1080p EuroSexParties EuroSexParties 16 09 29 Blondie Fesser And Marta Lacroft Thick And Ready XXX 1080p MP4-KTR 4.3 GB29.09.2016
Scene HD 1080p DDFBusty DDFBusty 16 09 29 Kayla Green XXX 1080p MP4-KTR 1.3 GB29.09.2016
Scene HD 1080p CumPerfection CumPerfection 16 09 29 Carmel Anderson Carmel Bukkake XXX 1080p MP4-KTR 1.2 GB29.09.2016
Scene HD 1080p BrazzersExxtra BrazzersExxtra 16 09 29 Kristen Scott My Stepsister The Gamer XXX 1080p MP4-KTR 3.0 GB29.09.2016
Scene HD 1080p Babes Babes 16 09 29 Suzy Rainbow Come Back To Me XXX 1080p MP4-KTR 1.7 GB29.09.2016
Scene HD 1080p AssTraffic AssTraffic 16 09 29 Bree Haze XXX 1080p MP4-KTR 4.1 GB29.09.2016
Scene HD 1080p ATKHairy ATKHairy 16 09 29 Nichole Shae Interview XXX 1080p MP4-KTR 1.2 GB29.09.2016
Scene HD 1080p ATKHairy ATKHairy 16 09 29 Katie Zucchini Masturbation XXX 1080p MP4-KTR 666 MB29.09.2016
1 2 3 4 5 6 > >>